Home > Weather > Sunrise Manor > Past weeks

Flag for USA Weather for the Past 2 Weeks in Sunrise Manor, Nevada, USA

Now
57 °F

Passing clouds.


Feels Like: 57 °F
Forecast: 55 / 79 °F
Wind: No wind

Location: Nellis Air Force Base

Current Time: Apr 29, 2016 at 1:18:55 AM

Latest Report: Apr 28, 2016 at 11:58 PM


Visibility: 10 mi

Pressure: 29.80 "Hg (27.89 "Hg at 555m altitude)

Humidity: 77%

Dew Point: 49 °F

Location of Sunrise ManorLocation

Historic Weather in Sunrise Manor — Graph

°F

Sunrise Manor Temperature Yesterday

Maximum temperature yesterday: 65 °F (at 3:58 PM)
Minimum temperature yesterday: 53 °F (at 5:58 AM)
Average temperature yesterday: 58 °F

High & Low Weather Summary for the Past Weeks

 TemperatureHumidityPressure
High91 °F (Apr 22, 1:59 PM)87% (Apr 28, 5:58 AM)30.15 "Hg (Apr 28, 5:58 AM)
Low53 °F (Apr 25, 7:58 AM)5% (Apr 20, 4:58 PM)29.53 "Hg (Apr 25, 1:58 AM)
Average69 °F24%29.80 "Hg
* Reported Apr 13 11:58 PM — Apr 28 11:58 PM, Sunrise Manor, Weather by CustomWeather, © 2016

Note: Actual official high and low records may vary slightly from our data, if they occured in-between our weather recording intervals... More about our weather records

Advertising

Sunrise Manor Weather History for the Previous 24 Hours

Scroll right to see more
 ConditionsComfort  
Time TempWeatherWind HumidityBarometerVisibility
11:58 PM
Thu, Apr 28
57 °FPassing clouds.No wind77%29.80 "Hg10 mi
10:58 PM56 °FPassing clouds.No wind84%29.80 "Hg10 mi
9:58 PM57 °FPassing clouds.No wind78%29.80 "Hg10 mi
8:56 PM57 °FLight rain. Passing clouds.6 mph77%29.80 "Hg10 mi
8:00 PM59 °FDrizzle. Partly sunny.10 mph77%29.78 "Hg10 mi
5:58 PM58 °FThundershowers. Passing clouds.12 mph75%29.71 "Hg10 mi
4:56 PM61 °FBroken clouds.18 mph63%29.66 "Hg10 mi
3:58 PM65 °FPassing clouds.10 mph51%29.65 "Hg10 mi
2:58 PM63 °FPassing clouds.7 mph58%29.66 "Hg10 mi
2:00 PM61 °FLight rain. Partly sunny.10 mph68%29.69 "Hg10 mi
12:58 PM62 °FLight rain. Partly sunny.8 mph58%29.65 "Hg6 mi
11:58 AM63 °FPassing clouds.2 mph52%29.65 "Hg10 mi
10:58 AM60 °FScattered clouds.2 mph64%29.64 "Hg10 mi
10:03 AM57 °FLight rain. Cloudy.6 mph77%29.67 "Hg9 mi
10:00 AM57 °FLight rain. More clouds than sun.6 mph72%29.67 "Hg9 mi
8:58 AM56 °FPassing clouds.No wind70%29.62 "Hg10 mi
7:58 AM54 °FBroken clouds.8 mph77%29.61 "Hg10 mi
6:58 AM53 °FBroken clouds.8 mph80%29.59 "Hg10 mi
5:58 AM53 °FPartly cloudy.13 mph87%29.58 "Hg10 mi
5:01 AM55 °FOvercast.6 mph72%29.61 "Hg10 mi
3:58 AM57 °FPartly cloudy.No wind63%29.55 "Hg10 mi
2:58 AM58 °FPassing clouds.8 mph60%29.55 "Hg10 mi
1:58 AM59 °FOvercast.10 mph58%29.55 "Hg10 mi
Weather by CustomWeather, © 2016

See weather overviewHow to use our weather pages